User: anonymous   Login
Location: Ciudad Delicias
(28.2170°N, 105.4670°W)
Time: 17:18:33
(UTC-07:00)
Language:

ETS-7 - Orbit

View from above orbital plane
View from above orbital plane
View from above satellite
View from above satellite

Ground track
Ground track

The orbit data is extracted from the following two-line orbital elements,

1 25064U 97074B   15187.22611507  .00059109  00000-0  34423-3 0  9993
2 25064 034.9489 233.4946 0004067 173.0327 257.1480 15.77254047981172
Epoch (UTC): 06 July 2015 05:25:36
Eccentricity: 0.0004067
inclination: 34.9489°
perigee height: 335 km
apogee height: 341 km
right ascension of ascending node: 233.4946°
argument of perigee: 173.0327°
revolutions per day: 15.77254047
mean anomaly at epoch: 257.1480°
orbit number at epoch: 98117

The dashed part of the orbit path shows where the satellite is in the earth's shadow,  

DLR